Spokane Felts, WA

4:52 PM PDT on April 28, 2017 (GMT -0700)
Felts

Weather History for KSFF - March, 2014

Change the Weather History Date:

Sunday, March 9, 2014

  Actual Average Record
Temperature  
Mean Temperature 51 °F 39 °F  
Max Temperature 59 °F 49 °F 66 °F (2012)
Min Temperature 43 °F 29 °F 20 °F (2009)
Degree Days  
Heating Degree Days 14 26  
Month to date heating degree days 240 244  
Since 1 July heating degree days 4919 4815  
Cooling Degree Days 0 0  
Month to date cooling degree days 0 0  
Year to date cooling degree days 0 0  
Growing Degree Days 2 (Base 50)    
Moisture  
Dew Point 43 °F    
Average Humidity 69    
Maximum Humidity 83    
Minimum Humidity 55    
Precipitation  
Precipitation 0.08 in 0.04 in 0.32 in (2017)
Month to date precipitation 1.64 0.36  
Year to date precipitation 4.28 3.69  
Sea Level Pressure  
Sea Level Pressure 29.87 in    
Wind  
Wind Speed 10 mph (SW)    
Max Wind Speed 23 mph    
Max Gust Speed 30 mph    
Visibility 10 miles    
Events Rain    
T = Trace of Precipitation, MM = Missing Value Source: NWS Daily Summary

Daily Weather History Graph

Daily Weather History Graph

Search for Another Location

Airport or City:

Trip Planner

Search our weather history database for the weather conditions in past years. The results will help you decide how hot, cold, wet, or windy it might be!

Date:

Astronomy

Mar. 09, 2014 Rise Set
Actual Time 7:14 AM PDT 6:46 PM PDT
Civil Twilight 6:43 AM PDT 7:16 PM PDT
Nautical Twilight 6:07 AM PDT 7:52 PM PDT
Astronomical Twilight 5:31 AM PDT 8:29 PM PDT
Moon 12:24 PM PDT (3/9) 3:01 AM PDT (3/9)
Length of Visible Light 12h 33m
Length of Day
11h 32m
First Quarter, 62% of the Moon is Illuminated
Mar 9
First Quarter
Mar 16
Full
Mar 23
Last Quarter
Mar 30
New
Apr 7
First Quarter

Hourly Weather History & Observations

Time (PDT) Temp. Windchill Dew Point Humidity Pressure Visibility Wind Dir Wind Speed Gust Speed Precip Events Conditions
12:53 AM 51.1 °F - 44.1 °F 77% 29.82 in 10.0 mi SSW 15.0 mph 26.5 mph 0.01 in Rain Light Rain
1:53 AM 51.1 °F - 45.0 °F 80% 29.81 in 10.0 mi SSW 15.0 mph 25.3 mph 0.02 in Rain Light Rain
3:53 AM 51.1 °F - 45.0 °F 80% 29.81 in 8.0 mi SSW 15.0 mph - 0.03 in Rain Light Rain
5:48 AM 53.6 °F - 46.4 °F 77% 29.84 in 10.0 mi SW 10.4 mph - N/A   Overcast
5:53 AM 53.1 °F - 46.9 °F 80% 29.84 in 10.0 mi SW 10.4 mph - N/A   Overcast
6:53 AM 52.0 °F - 46.9 °F 83% 29.86 in 10.0 mi WSW 6.9 mph - N/A   Overcast
7:53 AM 51.1 °F - 46.0 °F 83% 29.88 in 10.0 mi SW 9.2 mph - N/A   Overcast
8:53 AM 51.1 °F - 46.0 °F 83% 29.89 in 10.0 mi SW 9.2 mph - N/A   Overcast
9:53 AM 51.1 °F - 46.0 °F 83% 29.91 in 10.0 mi WSW 9.2 mph - N/A   Overcast
10:53 AM 52.0 °F - 46.9 °F 83% 29.91 in 10.0 mi WSW 10.4 mph - 0.01 in   Overcast
11:53 AM 52.0 °F - 46.9 °F 83% 29.91 in 10.0 mi SW 12.7 mph - 0.00 in   Overcast
12:53 PM 55.0 °F - 46.9 °F 74% 29.89 in 10.0 mi SW 15.0 mph 24.2 mph N/A   Overcast
1:53 PM 55.0 °F - 46.9 °F 74% 29.89 in 6.0 mi WSW 19.6 mph 26.5 mph 0.01 in Rain Light Rain
2:53 PM 57.0 °F - 45.0 °F 64% 29.88 in 10.0 mi West 9.2 mph 21.9 mph 0.00 in   Overcast
3:53 PM 57.9 °F - 43.0 °F 58% 29.87 in 10.0 mi WSW 13.8 mph 21.9 mph N/A   Overcast
4:00 PM 59.0 °F - 43.0 °F 55% 29.87 in 10.0 mi WSW 16.1 mph 21.9 mph N/A   Scattered Clouds
4:53 PM 57.9 °F - 41.0 °F 53% 29.87 in 10.0 mi WSW 16.1 mph 24.2 mph N/A   Clear
5:53 PM 55.9 °F - 39.0 °F 53% 29.88 in 10.0 mi West 11.5 mph 19.6 mph N/A   Clear
6:53 PM 55.0 °F - 39.0 °F 55% 29.88 in 10.0 mi WSW 10.4 mph - N/A   Clear
7:53 PM 52.0 °F - 37.9 °F 59% 29.89 in 10.0 mi West 10.4 mph - N/A   Clear
8:53 PM 48.0 °F - 37.9 °F 68% 29.89 in 10.0 mi SW 4.6 mph - N/A   Clear
9:53 PM 45.0 °F - 37.9 °F 76% 29.90 in 10.0 mi Calm Calm - N/A   Clear
10:53 PM 44.1 °F 41.5 °F 37.9 °F 79% 29.90 in 10.0 mi NE 4.6 mph - N/A   Clear
11:53 PM 44.1 °F 41.5 °F 37.9 °F 79% 29.88 in 10.0 mi NE 4.6 mph - N/A   Clear
12:53 AM 43.0 °F - 39.0 °F 86% 29.87 in 10.0 mi Calm Calm - N/A   Mostly Cloudy